Location: Boone Canyon
(38.3180°N, 119.2504°W)
Time: 17:48:25
(UTC+00:00)

Cosmos 2173 Rocket - Pass Details

Date: 18 September 2020
Orbit: 946 x 999 km, 83.0° (Epoch: 19 October)

Event Time Altitude Azimuth Distance (km) Brightness Sun altitude
Rises 13:11:23 0° 349° (NNW) 3,699 7.0 -6.8°
Reaches altitude 10° 13:13:56 10° 346° (NNW) 2,754 6.3 -6.3°
Maximum altitude 13:20:08 61° 268° (W) 1,123 4.1 -5.1°
Drops below altitude 10° 13:26:22 10° 189° (S) 2,758 6.2 -3.9°
Sets 13:28:55 0° 186° (S) 3,705 6.9 -3.4°
